Date String (YYYY-MM-DD hh:mm:ss) UTC,Instrument flags,Ambient pressure (hPa),Sample flow (lpm),Bypass flow (lpm),Sample temperature (°C),Ambient temperature (°C),ASC tube jacket temperature (°C),LED temperature (°C),Box temperature (°C),Sample RH (%),Span deviation,Mass concentration (μg/m³),Mass concentration (μg/m³),Mass concentration (μg/m³)
DateTimeUTC,F1_M11,P_M11,Q1_M11,Q2_M11,T1_M11,T2_M11,T3_M11,T4_M11,T5_M11,U1_M11,ZSPAN_M11,X0_M11,X2_M11,X1_M11
2022-04-02 20:00:00,,0823.3,5.01,0.00,27.9,27.1,00.0,36.8,29.7,10.2,0005.0,0012.08,0006.71,0005.90
2022-04-02 20:01:00,,0823.4,5.00,0.00,27.9,27.1,00.0,36.8,29.7,10.1,0004.6,0011.23,0006.65,0005.82
2022-04-02 20:02:00,,0823.4,5.01,0.00,27.9,27.1,00.0,36.8,29.7,10.2,0004.2,0011.45,0006.65,0005.80
2022-04-02 20:03:00,,0823.4,5.00,0.00,27.9,27.1,00.0,36.8,29.7,10.2,0004.4,0011.57,0006.65,0005.77
2022-04-02 20:04:00,,0823.3,4.99,0.00,27.9,27.1,00.0,36.8,29.7,10.3,0004.8,0011.76,0006.63,0005.76
2022-04-02 20:05:00,,0823.3,5.01,0.00,27.9,27.1,00.0,36.8,29.8,10.6,0004.8,0011.81,0006.63,0005.76
2022-04-02 20:06:00,,0823.3,5.00,0.00,27.9,27.2,00.0,36.8,29.8,10.7,0004.6,0011.76,0006.64,0005.75
2022-04-02 20:07:00,,0823.2,5.01,0.00,27.9,27.2,00.0,36.8,29.8,10.5,0005.0,0011.36,0006.61,0005.74
2022-04-02 20:08:00,,0823.2,5.00,0.00,28.0,27.2,00.0,36.8,29.8,10.4,0005.2,0011.31,0006.62,0005.74
2022-04-02 20:09:00,,0823.2,5.00,0.00,28.0,27.2,00.0,36.9,29.8,10.3,0002.4,0011.29,0006.61,0005.73
2022-04-02 20:10:00,,0823.2,5.00,0.00,28.0,27.3,00.0,36.9,29.8,10.6,0005.0,0012.29,0006.60,0005.75
2022-04-02 20:11:00,,0823.1,5.01,0.00,28.0,27.3,00.0,36.9,29.8,10.4,0004.6,0012.53,0006.55,0005.72
2022-04-02 20:12:00,,0823.1,5.00,0.00,28.0,27.3,00.0,36.9,29.8,10.1,0000.0,0012.53,0006.51,0005.71
2022-04-02 20:13:00,,0823.1,4.99,0.00,28.0,27.3,00.0,36.9,29.8,10.0,0000.4,0012.62,0006.44,0005.69
2022-04-02 20:14:00,,0823.2,5.00,0.00,28.0,27.3,00.0,36.9,29.8,10.1,0003.3,0012.63,0006.45,0005.70
2022-04-02 20:15:00,,0823.3,4.99,0.00,28.0,27.2,00.0,36.9,29.8,09.9,0000.0,0012.63,0006.47,0005.68
2022-04-02 20:16:00,,0823.2,4.99,0.00,28.0,27.3,00.0,36.9,29.9,10.0,0000.0,0012.57,0006.49,0005.67
2022-04-02 20:17:00,,0823.2,5.01,0.00,28.0,27.3,00.0,36.9,29.9,10.1,0000.0,0012.68,0006.52,0005.66
2022-04-02 20:18:00,,0823.2,5.00,0.00,28.1,27.3,00.0,36.9,29.9,09.9,0000.0,0012.77,0006.54,0005.66
2022-04-02 20:19:00,,0823.1,5.00,0.00,28.1,27.3,00.0,36.9,29.9,09.9,0004.2,0012.72,0006.55,0005.66
2022-04-02 20:20:00,,0823.1,5.00,0.00,28.1,27.3,00.0,36.9,29.9,09.9,0005.4,0012.86,0006.61,0005.69
2022-04-02 20:21:00,,0823.1,5.00,0.00,28.1,27.4,00.0,36.9,29.9,10.2,0005.4,0011.97,0006.62,0005.70
2022-04-02 20:22:00,,0823.1,5.01,0.00,28.1,27.4,00.0,37.0,29.9,10.5,0005.3,0011.47,0006.67,0005.74
2022-04-02 20:23:00,,0823.1,5.00,0.00,28.1,27.4,00.0,37.0,29.9,10.3,0004.8,0011.62,0006.76,0005.81
2022-04-02 20:24:00,,0823.1,4.99,0.00,28.1,27.3,00.0,37.0,29.9,10.3,0004.4,0011.43,0006.83,0005.87
2022-04-02 20:25:00,,0823.1,4.99,0.00,28.1,27.3,00.0,37.0,29.9,10.3,0004.2,0011.95,0006.89,0005.93
2022-04-02 20:26:00,,0823.1,5.00,0.00,28.1,27.3,00.0,37.0,29.9,10.2,0004.5,0012.05,0006.92,0005.99
2022-04-02 20:27:00,,0823.1,5.01,0.00,28.1,27.3,00.0,37.0,30.0,10.1,0004.5,0012.34,0006.96,0006.07
2022-04-02 20:28:00,,0823.0,4.99,0.00,28.1,27.4,00.0,37.0,30.0,10.1,0004.6,0012.61,0007.02,0006.15
2022-04-02 20:29:00,,0822.9,5.02,0.00,28.1,27.4,00.0,37.0,30.0,10.4,0004.0,0012.82,0007.06,0006.20
2022-04-02 20:30:00,,0822.8,5.00,0.00,28.1,27.4,00.0,37.0,30.0,10.1,0004.0,0013.14,0007.04,0006.23
2022-04-02 20:31:00,,0822.7,4.99,0.00,28.2,27.4,00.0,37.0,30.0,10.3,0003.0,0013.28,0007.02,0006.24
2022-04-02 20:32:00,,0822.8,5.00,0.00,28.2,27.4,00.0,37.0,30.0,10.7,0003.3,0014.00,0007.10,0006.28
2022-04-02 20:33:00,,0822.8,4.99,0.00,28.1,27.4,00.0,37.0,29.9,10.6,0003.1,0014.08,0007.13,0006.32
2022-04-02 20:34:00,,0822.9,5.02,0.00,28.1,27.4,00.0,37.0,29.9,10.4,0002.2,0013.97,0007.12,0006.32
2022-04-02 20:35:00,,0823.0,5.00,0.00,28.1,27.4,00.0,37.0,29.9,10.5,0002.6,0013.92,0007.12,0006.34
2022-04-02 20:36:00,,0823.0,5.00,0.00,28.1,27.4,00.0,37.0,29.9,10.3,0002.3,0014.00,0007.14,0006.36
2022-04-02 20:37:00,,0823.1,4.99,0.00,28.1,27.4,00.0,37.0,30.0,10.5,0001.3,0014.08,0007.15,0006.37
2022-04-02 20:38:00,,0823.0,5.02,0.00,28.1,27.4,00.0,37.0,30.0,10.5,0001.3,0013.75,0007.12,0006.36
2022-04-02 20:39:00,,0822.9,5.00,0.00,28.2,27.4,00.0,37.0,30.0,10.4,0001.4,0013.62,0007.12,0006.35
2022-04-02 20:40:00,,0822.9,5.00,0.00,28.2,27.4,00.0,37.1,30.0,10.3,0001.4,0013.98,0007.12,0006.35
2022-04-02 20:41:00,,0822.9,5.00,0.00,28.2,27.5,00.0,37.1,30.0,10.2,0000.8,0013.61,0007.17,0006.36
2022-04-02 20:42:00,,0822.9,4.99,0.00,28.2,27.5,00.0,37.1,30.0,10.3,0000.8,0013.63,0007.21,0006.38
2022-04-02 20:43:00,,0822.9,4.99,0.00,28.2,27.5,00.0,37.1,30.0,10.2,0000.5,0013.70,0007.21,0006.39
2022-04-02 20:44:00,,0822.7,5.00,0.00,28.2,27.5,00.0,37.1,30.0,10.2,0000.5,0013.84,0007.25,0006.38
2022-04-02 20:45:00,,0822.6,5.02,0.00,28.2,27.5,00.0,37.1,30.0,10.3,0000.7,0013.89,0007.24,0006.36
2022-04-02 20:46:00,,0822.7,4.99,0.00,28.2,27.5,00.0,37.1,30.1,10.3,0000.3,0013.95,0007.21,0006.31
2022-04-02 20:47:00,,0822.6,5.00,0.00,28.2,27.5,00.0,37.1,30.1,10.4,0000.4,0013.45,0007.16,0006.25
2022-04-02 20:48:00,,0822.6,5.02,0.00,28.2,27.5,00.0,37.1,30.1,10.3,0001.3,0013.07,0007.13,0006.20
2022-04-02 20:49:00,,0822.6,4.99,0.00,28.3,27.5,00.0,37.1,30.1,10.3,0000.5,0013.10,0007.17,0006.20
2022-04-02 20:50:00,,0822.7,4.99,0.00,28.3,27.6,00.0,37.1,30.1,10.5,0000.4,0014.14,0007.15,0006.16
2022-04-02 20:51:00,,0822.7,5.01,0.00,28.3,27.6,00.0,37.1,30.1,10.3,0000.2,0014.74,0007.16,0006.12
2022-04-02 20:52:00,,0822.7,5.00,0.00,28.3,27.6,00.0,37.1,30.1,10.6,-000.1,0014.76,0007.10,0006.08
2022-04-02 20:53:00,,0822.7,5.00,0.00,28.3,27.6,00.0,37.2,30.1,10.6,-000.0,0015.03,0007.08,0006.04
2022-04-02 20:54:00,,0822.6,5.00,0.00,28.3,27.6,00.0,37.2,30.2,10.2,0000.5,0014.59,0007.07,0005.99
2022-04-02 20:55:00,,0822.6,5.00,0.00,28.3,27.6,00.0,37.2,30.2,10.3,0000.6,0014.48,0007.03,0005.94
2022-04-02 20:56:00,,0822.5,5.00,0.00,28.3,27.7,00.0,37.2,30.2,10.3,0001.3,0014.40,0006.99,0005.92
2022-04-02 20:57:00,,0822.4,5.00,0.00,28.4,27.7,00.0,37.2,30.2,10.3,0000.7,0014.41,0007.00,0005.92
2022-04-02 20:58:00,,0822.3,5.00,0.00,28.3,27.6,00.0,37.2,30.1,10.4,0000.1,0014.51,0007.02,0005.92
2022-04-02 20:59:00,,0822.3,4.99,0.00,28.3,27.6,00.0,37.2,30.2,10.4,-000.7,0014.52,0007.03,0005.91
